STARLINK-2407, 47822

Orbit data source: Space-Track

STARLINK-2407, 47822 is a payload satellite owned by SpaceX/Seattle (US) in LEO that was launched on Thu, 11 Mar 2021 UTC via an FALCON 9 launch vehicle from the Air Force Eastern Test Range (AFETR). Payload-class satellites include a variety of spacecraft equipped with specific instruments for various scientific and technological missions. These include communications satellites like Starlink; space stations such as the ISS; scientific satellites like the Hubble; Earth observation satellites from companies like Planet Labs, Umbra, and HawkEye 360; GPS; miniature CubeSats for education and research; and military/defense satellites.

Loading next visibility...
Identifier
47822, 2021-018AM
Orbit
LEO
Country
Flag of USUS
Related business
Manufacturer
SpaceX/Seattle
Mission
Operational Commercial Communications
Bus & Motor
STARLINK, Unknown motor
Mass
260 kg wet, ~248 kg dry
Launch date (UTC)
2021-03-11 (5 years ago)
Launch vehicle
FALCON 9
Launch site
Air Force Eastern Test Range (AFETR)
Object type
Payload
Rocket body
Debris
Shape & HBR
Box + 1 Pan, 10.1 m
Radar Cross Section
13.562 m², Large (>1 m²)

Expand to show TLE details & history
Last TLE update: 5 hours ago

TLE from 5 hours ago
0 STARLINK-2407
1 47822U 21018AM  26035.83334490  .00042484  00000-0  14772-2 0  9990
2 47822  53.1555  47.8306 0001687  91.2976  22.5970 15.29331667  5770
Epoch: 2026-02-04T20:00Z
TLE epoch observation values (Epoch: 2026-02-04T20:00:00.999Z)
Latitude
47.16873°
Longitude
99.33514°
Altitude
481.916 km
Speed
7.631 km/s
True Right ascension
11h 37m 20s
True Declination
46° 59' 25"
Sunlit
Object was in full shadow at epoch
Visualization orbit readout
Latitude
Unknown
Longitude
Unknown
Altitude
Unknown
Speed
Unknown
Apparent Right ascension
Unknown
Apparent Declination
Unknown
Sunlit
N/A
Visualization observer readout
Local Sidereal Time
02:38:09
Azimuth
Unknown
Elevation
Unknown
Doppler factor
Unknown
Orbital elements
Apogee altitude
479.223 km
Perigee altitude
476.909 km
Semi-major axis
6,856.203 km
Eccentricity
0.00017
Inclination
53.1555°
RAAN
47.8306°
Arg. of periapsis
91.2976°
True anomaly
22.60443°
Mean anomaly
22.597°
Eccentric anomaly
22.60071°
Mean motion
3.82312 °/min
Orbital period
94.16 mins
BSTAR
0.0014772
Loading maneuver chart data...
Computing Atmospheric mass density...
Loading historical data...
Loading historical data...
Loading historical data...
Loading historical data...
Loading historical data...
Loading historical data...
Loading historical data...

Documentation

Showing up to 5 results
|